Overview Statistics Trail Chart Weather Telemetry Raw packets
 

This is the latest recevied weather packets stored in our database for station/object N1SU-13. If no packets are shown the sender has not sent any weather packets the latest 10 day(s).

<< 19 20 21 22 23 24 25 >>
Time Temp. Humidity Pressure Rain* Wind** Luminosity Snow
1788390136 15° C 86% 1003.4 hPa 1.02 mm - - -
1788389565 15° C 85% 1003.1 hPa 1.02 mm - - -
1788388948 15° C 84% 1003.1 hPa 1.27 mm - - -
1788388343 15.56° C 83% 1003.3 hPa 0.76 mm - - -
1788387702 15.56° C 83% 1003.2 hPa 0.76 mm - - -
1788387040 15.56° C 83% 1003.1 hPa 0.76 mm - - -
1788386439 16.11° C 81% 1003.1 hPa 0.51 mm - - -
1788385783 16.11° C 79% 1002.8 hPa 0.51 mm - - -
1788385223 16.67° C 78% 1002.7 hPa 0 mm - - -
1788384537 16.67° C 75% 1003 hPa 0 mm - - -
1788383908 16.67° C 74% 1003 hPa 0 mm - - -
1788383265 17.22° C 71% 1002.8 hPa 0 mm - - -
1788382704 17.78° C 70% 1002.9 hPa 0 mm - - -
1788382041 17.78° C 69% 1002.9 hPa 0 mm - - -
1788381462 18.33° C 66% 1002.6 hPa 0 mm - - -
1788380877 18.33° C 64% 1002.5 hPa 0 mm - - -
1788380265 18.89° C 63% 1002.8 hPa 0 mm - - -
1788379658 18.89° C 61% 1002.8 hPa 0 mm - - -
1788378998 19.44° C 59% 1002.7 hPa 0 mm - - -
1788378407 19.44° C 60% 1002.8 hPa 0 mm - - -
1788377785 19.44° C 60% 1002.9 hPa 0 mm - - -
1788377143 19.44° C 59% 1002.9 hPa 0 mm - - -
1788376469 18.89° C 60% 1003 hPa 0 mm - - -
1788375910 18.89° C 60% 1003.2 hPa 0 mm - - -
1788375258 18.33° C 63% 1003.4 hPa 0 mm - - -

* Rain latest hour (hover to see other rain measurements)
** Current wind speed in m/s (hover to see current wind gust speed)